Wind_Speed
30 29 28 28 27 26 25 25 25 25 24 24 24 27 27 29 30 28 27 27 21 12 11 12 11 11 11 10 12 12 7 9 10 13 21 24 25 23 19 18 21 20 19 18
33 32 31 30 29 27 27 27 28 27 27 27 26 27 28 30 30 30 30 28 21 13 10 9 11 14 12 6 8 12 13 7 11 16 19 20 23 19 18 21 17 15 16 19
37 37 35 32 31 31 31 30 30 31 31 31 30 33 30 31 30 31 32 29 21 16 12 7 8 12 14 12 15 16 17 11 6 9 16 20 22 24 22 21 18 16 14 14
44 41 40 37 35 35 34 34 35 35 35 35 33 36 35 33 32 31 30 29 21 21 19 9 10 10 8 6 7 10 14 9 8 7 2 13 22 24 26 22 19 16 16 17
49 48 46 41 39 39 39 39 39 39 38 38 39 39 38 36 34 33 29 26 24 21 23 12 12 11 9 5 7 2 10 4 7 6 6 2 13 23 24 24 23 20 16 15
54 52 50 48 46 45 44 44 44 43 41 40 41 40 41 39 36 32 29 26 23 23 20 15 15 14 12 9 4 2 7 5 3 6 3 4 6 6 21 23 24 23 22 16
56 57 55 53 51 49 48 46 47 46 44 43 43 41 40 39 36 32 29 25 24 23 26 22 17 15 15 15 16 6 2 8 2 2 1 7 9 10 8 13 19 22 21 15
52 54 56 56 55 54 53 51 48 46 44 42 41 38 37 36 33 30 29 26 26 26 22 21 18 17 19 16 18 18 10 6 3 3 4 2 2 3 3 1 6 13 20 23
44 46 47 48 50 53 55 54 52 49 46 44 40 35 34 34 33 32 30 28 26 25 20 18 20 21 22 18 21 21 12 7 10 10 3 5 7 12 13 19 17 16 14 16
37 38 39 40 42 44 44 44 45 45 45 42 40 36 36 35 34 33 32 30 27 27 25 23 22 21 19 19 21 25 29 26 23 18 18 10 16 19 22 18 16 15 19 16
29 33 35 37 37 38 39 40 39 39 39 41 39 36 36 34 34 34 33 29 27 25 27 27 25 24 24 26 25 25 27 33 40 38 31 23 23 20 22 20 26 24 22 18
28 32 33 33 35 36 37 38 39 38 36 35 40 39 37 35 35 35 36 35 34 33 31 32 33 32 34 35 34 35 35 33 35 41 44 43 39 29 24 28 27 26 22 22
23 26 29 30 31 32 32 33 35 35 34 38 42 42 40 41 41 41 42 40 39 39 39 40 41 41 41 43 44 44 44 44 40 45 47 48 49 45 34 33 36 36 32 31
18 20 23 24 26 28 30 32 33 33 35 37 40 44 46 46 45 44 44 44 45 45 46 46 47 47 48 49 49 49 48 47 48 47 45 47 52 52 51 45 44 43 44 41
20 21 21 23 24 24 26 28 30 33 35 39 42 44 47 49 49 49 49 49 49 50 51 51 51 52 50 50 50 52 53 54 53 55 56 56 57 58 59 57 51 52 50 50
14 18 20 20 21 21 22 26 28 30 34 37 40 41 44 46 49 51 52 51 51 50 52 53 53 54 56 56 56 58 58 59 61 63 63 64 62 56 54 58 57 60 64 61
18 18 21 23 21 22 26 26 28 30 31 34 37 40 43 45 47 47 48 49 51 52 55 56 57 58 59 60 62 65 67 69 70 68 67 60 57 58 59 58 60 62 64 69
24 23 22 26 26 27 30 30 30 32 34 36 38 41 43 44 47 50 52 53 56 58 59 60 60 61 63 67 69 68 64 60 58 61 63 66 65 63 64 66 66 66 71 72
35 36 32 30 33 33 33 33 34 35 38 41 42 44 46 48 51 53 55 57 60 61 62 63 65 67 69 65 61 60 63 66 69 71 72 74 77 79 79 75 73 71 73 78
39 39 37 35 34 36 40 40 41 40 43 44 46 48 50 53 56 59 61 62 63 64 67 69 66 61 64 66 65 68 71 73 77 79 83 86 88 88 88 87 83 80 78 81
39 40 40 40 38 38 40 42 42 45 46 49 51 54 55 57 59 61 62 65 68 69 65 62 66 66 71 72 72 73 75 79 78 78 81 85 87 86 85 86 89 87 86 86
37 40 43 43 42 41 42 43 44 46 48 50 51 53 56 59 62 65 67 65 64 66 68 69 70 71 74 76 77 76 74 74 76 77 78 73 69 67 74 80 84 82 81 87
37 37 40 42 43 44 46 48 49 50 52 54 57 59 61 60 58 59 63 67 70 72 73 74 74 75 76 75 74 74 72 75 77 72 63 59 57 51 52 57 69 75 82 85
35 34 35 37 40 43 46 48 51 54 58 59 57 54 58 61 64 67 70 73 74 75 76 75 73 72 74 77 76 77 75 74 70 55 49 47 45 46 45 45 54 62 76 79
35 37 39 42 45 48 50 52 52 50 52 57 60 63 66 68 69 68 69 70 70 70 73 75 76 76 78 81 81 79 76 70 52 46 47 45 45 45 45 44 45 49 56 59
39 40 41 41 42 42 46 49 53 56 59 62 64 64 63 61 60 62 65 69 71 73 76 80 82 83 83 84 82 78 68 49 43 47 51 51 50 50 50 49 48 47 49 47
Wind_Direction
226 227 226 224 228 234 238 238 242 249 256 267 279 292 303 312 319 319 321 325 325 315 312 317 331 355 6 10 7 357 315 262 238 214 204 205 214 223 231 227 222 231 234 236
228 231 232 232 231 235 239 244 252 258 264 271 279 287 299 307 312 315 317 321 318 305 290 303 329 338 348 357 40 33 22 338 245 225 228 225 219 219 229 223 226 233 246 243
232 233 234 235 237 237 240 244 251 260 266 273 282 287 292 300 305 308 311 318 305 291 277 282 318 338 347 360 66 63 46 34 11 264 247 244 230 225 224 234 220 227 238 242
235 237 239 239 241 244 246 251 255 260 267 275 280 284 289 295 299 300 303 306 292 283 278 281 300 309 350 340 19 53 27 66 68 58 3 244 230 224 218 224 229 233 244 246
235 238 241 241 243 246 250 254 259 264 270 276 280 282 286 290 294 297 295 284 279 271 273 269 285 305 323 290 300 139 15 81 81 78 100 135 231 229 225 228 232 234 237 246
237 239 241 242 243 246 249 253 257 262 267 271 274 279 284 287 290 289 285 277 260 266 257 254 273 283 302 247 240 188 9 37 76 97 97 113 135 202 234 235 239 245 246 247
237 239 241 243 243 247 251 254 257 260 264 267 272 276 279 281 284 279 276 266 261 256 255 252 263 272 302 286 252 211 93 70 25 256 109 132 127 108 136 207 230 241 246 246
235 238 241 244 246 248 251 253 256 260 262 263 268 269 270 272 270 265 262 258 259 258 255 263 266 283 295 286 262 252 242 231 231 211 137 184 256 292 291 215 210 237 239 248
233 238 240 243 246 247 250 252 254 256 258 260 260 257 256 257 256 254 251 251 249 252 254 266 278 286 294 287 261 246 221 240 245 237 236 299 302 274 282 273 271 283 260 238
234 235 238 240 242 245 248 251 252 253 252 251 251 245 240 244 248 251 252 251 255 254 260 264 270 281 286 277 262 252 248 260 264 251 255 271 294 298 301 258 245 249 268 281
228 231 233 234 235 238 241 242 242 242 246 249 242 235 237 240 244 248 252 257 259 260 262 263 263 269 276 275 269 270 265 259 259 264 254 248 274 281 278 262 268 262 254 263
229 228 227 231 235 237 239 241 242 240 243 248 244 235 234 236 239 242 247 251 255 258 264 266 269 270 271 272 278 280 275 262 260 257 269 263 263 272 269 266 248 247 267 250
233 236 238 236 240 241 242 245 245 243 235 235 232 230 234 237 239 243 248 253 257 260 263 266 268 270 272 272 269 268 267 268 264 257 265 273 268 268 256 256 259 251 256 251
238 238 236 233 236 242 244 244 244 244 245 238 234 232 235 239 244 247 250 255 258 262 266 268 271 271 272 273 272 269 267 265 264 262 263 268 276 276 273 265 257 254 258 250
240 229 230 232 233 236 241 243 243 242 242 243 241 238 239 243 248 252 255 258 261 264 267 269 273 274 274 274 273 274 274 276 273 271 273 273 274 274 271 269 262 254 253 254
234 230 233 238 239 236 238 239 239 243 244 244 247 248 250 251 254 256 259 263 265 267 270 271 272 277 278 278 278 278 278 276 273 272 269 270 271 266 261 263 258 252 252 252
248 247 243 245 242 243 245 246 248 248 248 251 253 254 256 258 260 263 266 268 269 271 273 275 276 278 279 281 280 279 279 280 280 278 275 269 262 262 263 259 260 258 247 248
251 255 253 250 251 252 255 256 257 260 260 259 259 260 262 265 268 269 269 271 272 272 273 274 276 278 278 279 280 280 278 276 275 272 271 271 270 265 262 259 256 255 258 254
257 268 264 253 256 260 262 260 261 261 262 262 264 265 266 266 268 269 271 271 272 274 277 279 280 281 281 279 276 276 276 275 272 270 268 266 265 266 265 261 257 251 250 252
264 267 266 260 251 252 257 261 264 268 269 272 272 273 272 272 271 272 272 275 277 279 280 282 283 281 281 282 280 279 279 279 277 276 275 273 269 263 261 259 256 254 250 245
261 263 266 268 266 264 264 265 265 266 268 270 272 273 275 276 277 278 281 284 285 284 284 284 285 285 285 285 286 285 285 285 286 283 281 277 272 266 261 256 254 250 246 244
260 264 264 266 267 268 270 274 275 275 275 275 274 275 276 279 282 284 284 283 284 285 285 284 285 286 286 285 286 286 286 288 290 291 290 287 280 271 263 257 251 249 243 241
259 261 263 265 266 266 268 270 272 275 277 279 280 281 283 283 282 281 283 283 284 286 286 286 285 285 286 286 287 289 291 294 297 296 292 289 286 277 269 257 249 247 244 241
267 267 266 266 266 267 270 273 277 280 282 283 285 285 285 285 285 286 287 287 287 286 287 288 288 288 288 288 289 292 294 296 295 286 285 286 285 281 272 261 254 247 247 246
271 274 275 275 276 277 279 280 280 282 283 285 285 286 287 288 288 287 287 288 289 289 289 289 289 289 289 290 291 293 293 293 282 280 283 284 286 284 279 269 258 253 254 250
274 274 274 274 276 278 279 282 284 284 285 286 287 288 288 288 289 290 290 290 290 290 290 290 289 289 288 288 288 287 287 280 277 282 285 286 285 284 280 276 269 258 252 250
Height
10948 10952 10956 10960 10964 10968 10969 10969 10971 10973 10975 10977 10977 10975 10975 10972 10970 10969 10967 10966 10964 10963 10961 10958 10956 10954 10952 10950 10948 10947 10946 10946 10948 10950 10953 10956 10958 10960 10961 10962 10963 10964 10965 10967
10945 10948 10951 10955 10959 10962 10964 10966 10966 10968 10971 10973 10974 10973 10972 10969 10967 10965 10963 10961 10961 10961 10959 10957 10956 10954 10951 10949 10948 10947 10946 10946 10946 10949 10951 10953 10956 10958 10960 10960 10962 10963 10963 10964
10938 10941 10945 10950 10954 10956 10958 10961 10962 10963 10964 10966 10969 10966 10966 10966 10965 10961 10958 10958 10958 10958 10957 10956 10955 10954 10953 10952 10949 10946 10944 10943 10944 10945 10946 10948 10950 10953 10956 10958 10959 10959 10960 10961
10932 10936 10939 10945 10949 10951 10953 10955 10956 10957 10959 10960 10961 10958 10958 10961 10960 10958 10955 10954 10955 10955 10955 10955 10954 10953 10953 10953 10951 10948 10945 10942 10939 10938 10939 10941 10944 10947 10950 10950 10952 10955 10957 10958
10923 10927 10932 10938 10941 10943 10946 10948 10949 10951 10953 10954 10953 10951 10951 10954 10954 10952 10952 10950 10951 10953 10954 10953 10952 10952 10951 10950 10950 10948 10945 10942 10939 10936 10934 10935 10938 10942 10946 10948 10950 10953 10953 10953
10915 10920 10923 10929 10932 10936 10938 10940 10942 10943 10946 10946 10944 10944 10943 10944 10946 10946 10945 10946 10948 10950 10950 10949 10949 10949 10949 10948 10948 10948 10947 10943 10940 10936 10935 10933 10932 10935 10939 10945 10948 10949 10950 10952
10904 10908 10914 10919 10923 10927 10929 10932 10934 10936 10938 10937 10936 10936 10934 10935 10937 10938 10940 10941 10942 10944 10945 10944 10944 10944 10945 10946 10949 10947 10945 10943 10940 10937 10936 10935 10934 10933 10934 10936 10941 10943 10946 10947
10894 10899 10904 10908 10913 10917 10919 10922 10925 10928 10930 10929 10929 10929 10926 10927 10929 10930 10932 10935 10937 10938 10938 10938 10939 10939 10942 10941 10944 10945 10942 10940 10936 10934 10932 10935 10937 10936 10935 10936 10935 10936 10937 10941
10885 10889 10893 10897 10902 10905 10907 10913 10915 10918 10920 10920 10921 10921 10918 10919 10922 10924 10927 10928 10932 10932 10933 10933 10934 10935 10936 10937 10939 10940 10938 10933 10932 10931 10930 10928 10931 10932 10933 10932 10932 10934 10934 10933
10875 10880 10883 10889 10892 10895 10898 10903 10907 10909 10910 10911 10912 10912 10911 10913 10916 10918 10919 10922 10925 10927 10927 10928 10929 10929 10930 10931 10931 10932 10932 10928 10925 10924 10925 10924 10923 10924 10924 10925 10926 10927 10929 10929
10867 10871 10875 10879 10883 10887 10890 10893 10897 10900 10901 10903 10903 10904 10905 10908 10911 10912 10914 10916 10917 10919 10920 10921 10922 10922 10924 10924 10924 10924 10923 10922 10919 10915 10916 10918 10917 10918 10917 10918 10921 10923 10922 10922
10860 10864 10867 10872 10875 10879 10882 10885 10888 10890 10893 10896 10897 10897 10898 10902 10903 10905 10906 10910 10912 10912 10912 10912 10913 10914 10916 10915 10914 10913 10913 10913 10911 10907 10904 10905 10908 10911 10909 10910 10914 10916 10916 10911
10857 10861 10864 10867 10870 10873 10876 10878 10879 10883 10885 10888 10890 10891 10892 10893 10895 10898 10899 10902 10903 10904 10904 10904 10904 10904 10905 10905 10904 10902 10901 10900 10900 10898 10896 10895 10895 10897 10901 10901 10902 10906 10906 10905
10853 10857 10859 10861 10863 10866 10868 10870 10872 10875 10878 10881 10883 10884 10884 10885 10887 10890 10892 10892 10893 10895 10895 10894 10892 10892 10891 10890 10888 10889 10888 10888 10888 10887 10886 10885 10883 10883 10884 10889 10890 10893 10894 10896
10848 10850 10852 10854 10856 10858 10861 10863 10864 10867 10869 10872 10872 10876 10878 10879 10879 10881 10882 10883 10883 10883 10884 10883 10880 10877 10875 10875 10873 10873 10874 10873 10873 10871 10870 10871 10871 10868 10868 10869 10875 10879 10881 10884
10843 10844 10845 10848 10851 10852 10854 10855 10857 10859 10861 10863 10865 10868 10869 10871 10871 10871 10872 10872 10872 10871 10869 10868 10865 10862 10860 10859 10858 10857 10857 10857 10856 10854 10853 10851 10851 10852 10852 10852 10856 10863 10865 10868
10840 10842 10843 10844 10846 10847 10848 10849 10851 10853 10854 10855 10856 10858 10859 10860 10860 10860 10860 10859 10857 10856 10854 10853 10851 10849 10847 10845 10841 10838 10836 10833 10831 10831 10829 10833 10836 10835 10835 10836 10836 10839 10846 10850
10833 10835 10837 10838 10840 10842 10842 10843 10845 10845 10846 10846 10846 10848 10848 10849 10847 10846 10845 10845 10843 10840 10839 10838 10837 10835 10832 10827 10823 10821 10817 10813 10813 10810 10810 10810 10812 10814 10815 10814 10815 10819 10819 10823
10826 10827 10831 10833 10832 10834 10834 10835 10837 10837 10836 10836 10837 10837 10836 10836 10834 10832 10831 10828 10826 10824 10822 10820 10817 10814 10810 10806 10805 10804 10800 10797 10792 10789 10790 10789 10788 10786 10784 10789 10792 10795 10798 10800
10818 10818 10820 10822 10825 10827 10825 10826 10827 10828 10826 10827 10825 10823 10822 10820 10817 10816 10813 10812 10808 10805 10801 10799 10796 10791 10787 10784 10784 10783 10777 10772 10766 10764 10760 10755 10752 10752 10752 10755 10762 10767 10772 10775
10810 10811 10811 10812 10814 10815 10816 10815 10817 10816 10817 10815 10812 10809 10806 10803 10800 10797 10795 10790 10786 10782 10778 10775 10772 10768 10763 10759 10758 10754 10750 10743 10741 10732 10723 10713 10708 10710 10714 10717 10722 10733 10742 10748
10801 10802 10802 10803 10804 10805 10804 10804 10804 10802 10800 10799 10798 10795 10792 10788 10784 10780 10775 10769 10765 10762 10759 10754 10752 10746 10740 10736 10733 10730 10724 10719 10713 10703 10691 10680 10673 10673 10675 10682 10688 10699 10709 10718
10793 10794 10793 10793 10794 10795 10794 10793 10791 10789 10786 10783 10780 10778 10776 10773 10767 10762 10758 10752 10746 10741 10737 10732 10728 10724 10717 10710 10706 10705 10700 10694 10685 10675 10667 10659 10652 10649 10649 10652 10656 10668 10674 10682
10783 10783 10784 10783 10783 10783 10782 10781 10778 10775 10771 10767 10763 10760 10757 10754 10748 10744 10738 10731 10724 10717 10712 10707 10703 10698 10692 10683 10679 10677 10674 10670 10664 10657 10651 10644 10639 10634 10634 10636 10635 10641 10644 10655
10773 10773 10773 10771 10770 10769 10768 10766 10763 10760 10757 10753 10748 10744 10739 10735 10729 10723 10716 10709 10702 10696 10688 10683 10678 10672 10665 10658 10653 10650 10649 10647 10642 10639 10635 10631 10627 10623 10621 10622 10623 10624 10625 10630
10764 10763 10760 10758 10757 10756 10755 10753 10750 10747 10742 10737 10732 10725 10720 10716 10709 10702 10695 10688 10681 10674 10667 10660 10653 10646 10642 10636 10632 10629 10627 10626 10624 10622 10617 10614 10611 10609 10607 10605 10604 10607 10607 10609